Regional Weather Roundup
Issued by NWS

Home | Current Version | Previous Version | Text Only | Print | Product List | Glossary Off
Versions: 1 2 3 4 5 6 7 8 9 10 11 12 13 14 15 16 17 18 19 20 21 22 23 24 25 26 27 28 29 30 31 32 33 34 35 36 37 38 39 40 41 42 43 44 45 46 47 48 49 50

000
ASUS45 KCYS 051510
RWRWY

WYOMING REGIONAL WEATHER ROUNDUP
NATIONAL WEATHER SERVICE CHEYENNE WY
900 AM MDT TUE MAY 05 2015

NOTE:  "FAIR" INDICATES FEW OR NO CLOUDS BELOW 12,000 FEET
WITH NO SIGNIFICANT WEATHER AND/OR OBSTRUCTIONS TO VISIBILITY.

WYZ001-051600-
YELLOWSTONE NATIONAL PARK

CITY           SKY/WX    TMP DP  RH WIND       PRES   REMARKS
LK YELLOWSTONE   N/A     38  30  73 CALM      30.03S
W YELLOWSTONE  NOT AVBL

$$
WYZ002>013-054>058-071-098>099-051600-
NORTHERN WYOMING

CITY           SKY/WX    TMP DP  RH WIND       PRES   REMARKS
JACKSON        NOT AVBL
CODY           FAIR      59  39  47 CALM      29.87F
GREYBULL       FAIR      60  43  53 CALM      29.84F
WORLAND        FAIR      59  45  59 CALM      29.85F
SHERIDAN       FAIR      56  45  66 N5        29.86F
BUFFALO        FAIR      54  44  69 SE16      29.90S
GILLETTE       PTSUNNY   50  43  77 S20       29.92F
HULETT         FAIR      61  45  55 S12       29.94F
NEWCASTLE      FAIR      54  43  66 SE18      29.97F

$$
WYZ014>020-022>026-101>103-051600-
CENTRAL WYOMING

CITY           SKY/WX    TMP DP  RH WIND       PRES   REMARKS
BIG PINEY      FAIR      50  39  66 CALM      29.99S
PINEDALE       FAIR      46  37  71 CALM      30.00S
DUBOIS         FAIR      46  34  61 NW7       29.96F
LANDER         FAIR      55  41  59 N7        29.90F
RIVERTON       FAIR      56  42  59 CALM      29.92F
CASPER         CLOUDY    44  43  96 VRB6      29.93F FOG
DOUGLAS        CLOUDY    47  44  90 SE15G24   29.96S

$$
WYZ021-027>030-104>119-051600-
SOUTHERN WYOMING

CITY           SKY/WX    TMP DP  RH WIND       PRES   REMARKS
EVANSTON       FAIR      47  38  71 E5        29.97S
KEMMERER       FAIR      50  41  71 NE6       29.98F
FORT BRIDGER   MOSUNNY   46  45  93 NW3       30.00S
ROCK SPRINGS   FAIR      47  40  76 CALM      29.96S
DIXON          FAIR      49  38  64 CALM      29.95F
RAWLINS        CLOUDY    45  41  86 VRB5      29.96F
SARATOGA       FAIR      45  39  81 CALM      29.97S
LARAMIE        FAIR      48  40  73 S21       29.95F
CHEYENNE       FOG       44  44 100 S10       29.99F VSB 1/4
TORRINGTON     CLOUDY    50  45  83 SE10      29.98F
PINE BLUFFS    CLOUDY    45  45 100 SE6       30.01S

$$



USA.gov is the U.S. government's official web portal to all federal, state and local government web resources and services.